Hourly Weather Caracas

Today, 8 August, Saturday

Time Temperature Precipitation Wind Pressure Humidity
00:00 +18°C° 0.7 mm 2 mps 651 mmHg 93%
01:00 +18°C° 0.7 mm 2 mps 651 mmHg 93%
02:00 +18°C° 0.7 mm 2 mps 650 mmHg 93%
03:00 +18°C° 0.6 mm 2 mps 650 mmHg 93%
04:00 +18°C° 0.6 mm 2 mps 650 mmHg 94%
05:00 +18°C° 0.6 mm 2 mps 650 mmHg 94%
06:00 +18°C° 0.4 mm 2 mps 650 mmHg 93%
07:00 +18°C° 0.4 mm 2 mps 651 mmHg 93%
08:00 +19°C° 0.4 mm 2 mps 651 mmHg 92%
09:00 +20°C° 0.5 mm 2 mps 652 mmHg 88%
10:00 +21°C° 0.5 mm 2 mps 652 mmHg 84%
11:00 +22°C° 0.5 mm 3 mps 653 mmHg 80%
12:00 +24°C° 0.8 mm 3 mps 652 mmHg 80%
13:00 +24°C° 0.8 mm 3 mps 651 mmHg 80%
14:00 +24°C° 0.8 mm 2 mps 651 mmHg 81%
15:00 +24°C° 1.1 mm 2 mps 650 mmHg 82%
16:00 +22°C° 1.1 mm 3 mps 650 mmHg 84%
17:00 +22°C° 1.1 mm 3 mps 649 mmHg 86%
18:00 +21°C° 0.5 mm 3 mps 650 mmHg 88%
19:00 +19°C° 0.5 mm 3 mps 650 mmHg 91%
20:00 +18°C° 0.5 mm 3 mps 650 mmHg 93%
21:00 +18°C° 0.2 mm 3 mps 650 mmHg 93%
22:00 +18°C° 0.2 mm 3 mps 650 mmHg 93%
23:00 +17°C° 0.2 mm 3 mps 651 mmHg 93%

Tomorrow, 9 August, Sunday

Time Temperature Precipitation Wind Pressure Humidity
00:00 +17°C° 0.2 mm 2 mps 650 mmHg 93%
01:00 +17°C° 0.2 mm 2 mps 650 mmHg 94%
02:00 +17°C° 0.2 mm 2 mps 650 mmHg 94%
03:00 +17°C° 0.2 mm 2 mps 650 mmHg 94%
04:00 +17°C° 0.2 mm 2 mps 649 mmHg 94%
05:00 +17°C° 0.2 mm 2 mps 649 mmHg 95%
06:00 +18°C° 0.2 mm 2 mps 650 mmHg 94%
07:00 +18°C° 0.2 mm 2 mps 650 mmHg 93%
08:00 +19°C° 0.2 mm 2 mps 651 mmHg 92%
09:00 +20°C° 0.3 mm 2 mps 651 mmHg 86%
10:00 +23°C° 0.3 mm 2 mps 652 mmHg 80%
11:00 +24°C° 0.3 mm 2 mps 652 mmHg 75%
12:00 +24°C° 1 mm 2 mps 652 mmHg 79%
13:00 +24°C° 1 mm 2 mps 651 mmHg 82%
14:00 +23°C° 1 mm 2 mps 651 mmHg 86%
15:00 +23°C° 1.3 mm 2 mps 650 mmHg 87%
16:00 +23°C° 1.3 mm 2 mps 650 mmHg 88%
17:00 +21°C° 1.3 mm 2 mps 649 mmHg 88%
18:00 +20°C° 0.4 mm 2 mps 649 mmHg 90%
19:00 +19°C° 0.4 mm 2 mps 649 mmHg 91%
20:00 +19°C° 0.4 mm 1 mps 649 mmHg 93%
21:00 +18°C° 0 mm 2 mps 650 mmHg 93%
22:00 +18°C° 0 mm 2 mps 650 mmHg 93%
23:00 +18°C° 0 mm 2 mps 650 mmHg 93%

Day after tomorrow, 10 August, Monday

Time Temperature Precipitation Wind Pressure Humidity
00:00 +18°C° 0.2 mm 2 mps 650 mmHg 93%
01:00 +17°C° 0.2 mm 2 mps 649 mmHg 94%
02:00 +17°C° 0.2 mm 2 mps 649 mmHg 94%
03:00 +17°C° 0.1 mm 2 mps 649 mmHg 93%
04:00 +17°C° 0.1 mm 2 mps 648 mmHg 93%
05:00 +17°C° 0.1 mm 2 mps 648 mmHg 93%
06:00 +18°C° 0 mm 1 mps 649 mmHg 91%
07:00 +19°C° 0 mm 1 mps 649 mmHg 90%
08:00 +20°C° 0 mm 1 mps 650 mmHg 88%
09:00 +22°C° 0 mm 1 mps 650 mmHg 80%
10:00 +23°C° 0 mm 1 mps 651 mmHg 72%
11:00 +25°C° 0 mm 2 mps 652 mmHg 64%
12:00 +25°C° 0.3 mm 2 mps 651 mmHg 66%
13:00 +25°C° 0.3 mm 2 mps 650 mmHg 67%
14:00 +25°C° 0.3 mm 2 mps 650 mmHg 69%
15:00 +25°C° 0.7 mm 2 mps 649 mmHg 74%
16:00 +24°C° 0.7 mm 2 mps 648 mmHg 79%
17:00 +23°C° 0.7 mm 2 mps 648 mmHg 84%
18:00 +21°C° 0.4 mm 2 mps 648 mmHg 87%
19:00 +20°C° 0.4 mm 2 mps 648 mmHg 91%
20:00 +18°C° 0.4 mm 2 mps 648 mmHg 94%
21:00 +18°C° 0.1 mm 2 mps 648 mmHg 94%
22:00 +18°C° 0.1 mm 2 mps 649 mmHg 93%
23:00 +18°C° 0.1 mm 2 mps 649 mmHg 93%

11 August, Tuesday

Time Temperature Precipitation Wind Pressure Humidity
00:00 +17°C° 0 mm 2 mps 648 mmHg 93%
01:00 +17°C° 0 mm 2 mps 648 mmHg 93%
02:00 +17°C° 0 mm 2 mps 648 mmHg 93%
03:00 +17°C° 0 mm 2 mps 647 mmHg 93%
04:00 +17°C° 0 mm 2 mps 647 mmHg 93%
05:00 +17°C° 0 mm 2 mps 647 mmHg 94%
06:00 +17°C° 0 mm 2 mps 648 mmHg 92%
07:00 +18°C° 0 mm 2 mps 648 mmHg 91%
08:00 +19°C° 0 mm 2 mps 649 mmHg 89%
09:00 +21°C° 0.1 mm 2 mps 649 mmHg 81%
10:00 +24°C° 0.1 mm 2 mps 650 mmHg 73%
11:00 +25°C° 0.1 mm 3 mps 650 mmHg 64%
12:00 +25°C° 0.5 mm 3 mps 650 mmHg 67%
13:00 +25°C° 0.5 mm 3 mps 649 mmHg 69%
14:00 +25°C° 0.5 mm 3 mps 649 mmHg 72%
15:00 +24°C° 0.8 mm 3 mps 648 mmHg 76%
16:00 +24°C° 0.8 mm 3 mps 647 mmHg 81%
17:00 +22°C° 0.8 mm 3 mps 647 mmHg 85%
18:00 +21°C° 0.1 mm 3 mps 647 mmHg 88%
19:00 +20°C° 0.1 mm 3 mps 647 mmHg 92%
20:00 +19°C° 0.1 mm 3 mps 648 mmHg 95%
21:00 +18°C° 0 mm 3 mps 648 mmHg 95%
22:00 +18°C° 0 mm 3 mps 648 mmHg 95%
23:00 +18°C° 0 mm 2 mps 648 mmHg 94%

12 August, Wednesday

Time Temperature Precipitation Wind Pressure Humidity
00:00 +18°C° 0.1 mm 2 mps 648 mmHg 94%
01:00 +17°C° 0.1 mm 2 mps 648 mmHg 94%
02:00 +17°C° 0.1 mm 2 mps 647 mmHg 95%
03:00 +17°C° 0.2 mm 2 mps 647 mmHg 95%
04:00 +17°C° 0.2 mm 2 mps 647 mmHg 95%
05:00 +17°C° 0.2 mm 2 mps 647 mmHg 95%
06:00 +18°C° 0.1 mm 2 mps 648 mmHg 93%
07:00 +19°C° 0.1 mm 2 mps 648 mmHg 92%
08:00 +19°C° 0.1 mm 2 mps 649 mmHg 91%
09:00 +21°C° 0.1 mm 2 mps 649 mmHg 83%
10:00 +22°C° 0.1 mm 3 mps 650 mmHg 76%
11:00 +25°C° 0.1 mm 3 mps 650 mmHg 68%
12:00 +25°C° 0.4 mm 3 mps 649 mmHg 68%
13:00 +25°C° 0.4 mm 3 mps 649 mmHg 68%
14:00 +26°C° 0.4 mm 3 mps 648 mmHg 68%
15:00 +25°C° 0.4 mm 3 mps 648 mmHg 72%
16:00 +24°C° 0.4 mm 3 mps 647 mmHg 76%
17:00 +24°C° 0.4 mm 3 mps 647 mmHg 80%
18:00 +21°C° 0.2 mm 3 mps 647 mmHg 85%
19:00 +20°C° 0.2 mm 3 mps 647 mmHg 90%
20:00 +19°C° 0.2 mm 3 mps 647 mmHg 94%
21:00 +19°C° 0.2 mm 3 mps 647 mmHg 94%
22:00 +18°C° 0.2 mm 3 mps 648 mmHg 94%
23:00 +18°C° 0.2 mm 3 mps 648 mmHg 94%

13 August, Thursday

Time Temperature Precipitation Wind Pressure Humidity
00:00 +18°C° 0 mm 2 mps 648 mmHg 94%
01:00 +18°C° 0 mm 2 mps 647 mmHg 94%
02:00 +18°C° 0 mm 2 mps 647 mmHg 95%
03:00 +18°C° 0.2 mm 2 mps 647 mmHg 95%
04:00 +18°C° 0.2 mm 2 mps 647 mmHg 95%
05:00 +18°C° 0.2 mm 3 mps 647 mmHg 95%
06:00 +18°C° 0 mm 3 mps 647 mmHg 93%
07:00 +19°C° 0 mm 2 mps 648 mmHg 92%
08:00 +19°C° 0 mm 2 mps 648 mmHg 91%
09:00 +21°C° 0 mm 3 mps 649 mmHg 83%
10:00 +24°C° 0 mm 3 mps 649 mmHg 75%
11:00 +25°C° 0 mm 3 mps 650 mmHg 67%
12:00 +25°C° 0.8 mm 3 mps 649 mmHg 72%
13:00 +25°C° 0.8 mm 3 mps 648 mmHg 77%
14:00 +24°C° 0.8 mm 3 mps 648 mmHg 81%
15:00 +24°C° 0.7 mm 3 mps 647 mmHg 83%
16:00 +22°C° 0.7 mm 3 mps 647 mmHg 84%
17:00 +22°C° 0.7 mm 3 mps 647 mmHg 86%
18:00 +21°C° 0.2 mm 3 mps 647 mmHg 89%
19:00 +20°C° 0.2 mm 3 mps 647 mmHg 92%
20:00 +19°C° 0.2 mm 3 mps 647 mmHg 95%
21:00 +19°C° 0.1 mm 3 mps 648 mmHg 95%
22:00 +19°C° 0.1 mm 3 mps 648 mmHg 95%
23:00 +19°C° 0.1 mm 3 mps 648 mmHg 95%
Show more